Regional Weather Roundup
Issued by NWS

Home | Current Version | Previous Version | Graphics & Text | Print | Product List | Glossary On
Versions: 1 2 3 4 5 6 7 8 9 10 11 12 13 14 15 16 17 18 19 20 21 22 23 24 25 26 27 28 29 30 31 32 33 34 35 36 37 38 39 40 41 42 43 44 45 46 47 48 49 50
198
ASUS45 KPSR 131010
RWRAZ

ARIZONA HOURLY REGIONAL WEATHER ROUNDUP
NATIONAL WEATHER SERVICE PHOENIX AZ
300 AM MST SAT FEB 13 2016

NOTE: FAIR INDICATES FEW OR NO CLOUDS BELOW 12,000 FEET WITH NO
SIGNIFICANT WEATHER AND/OR OBSTRUCTIONS TO VISIBILITY.

AZZ001>003-036-131100-
NORTHWEST ARIZONA

CITY           SKY/WX    TMP DP  RH WIND       PRES   REMARKS
BULLHEAD CITY  CLEAR     55  28  35 CALM      30.10S
KINGMAN        CLEAR     41  22  46 CALM      30.17F
$$

AZZ004>008-015-016-018-131100-
NORTH CENTRAL ARIZONA

CITY           SKY/WX    TMP DP  RH WIND       PRES   REMARKS
GRAND CANYON   PTCLDY    25  20  81 E3        30.32F
WILLIAMS       PTCLDY    30  19  64 S13       30.36F WCI  20
PRESCOTT       PTCLDY    38  23  55 S5        30.25F WCI  34
FLAGSTAFF      PTCLDY    25  19  78 CALM      30.33F
PAYSON         CLEAR     45  18  33 CALM      30.27F
PAGE           MOCLDY    37  30  75 CALM      30.26F
$$

AZZ009>014-017-131100-
NORTHEAST ARIZONA

CITY           SKY/WX    TMP DP  RH WIND       PRES   REMARKS
WINSLOW        CLOUDY    29  19  66 E3        30.29S
SAINT JOHNS    PTCLDY    29  15  56 CALM      30.30S
WINDOW ROCK    CLEAR     27   0  31 CALM      30.34F
SHOW LOW       PTCLDY    39  14  35 S10       30.32S WCI  32
$$

AZZ023-131100-
GREATER PHOENIX AREA

CITY           SKY/WX    TMP DP  RH WIND       PRES   REMARKS
PHOENIX        CLEAR     60  35  39 CALM      30.05F
BUCKEYE        CLEAR     48  28  46 N7        30.08F
LUKE AFB       CLEAR     51  34  52 NW2       30.06R
DEER VALLEY    CLEAR     55  28  35 NE3       30.07S
SCOTTSDALE     CLEAR     56  33  42 CALM      30.07F
MESA-GATEWAY   CLEAR     52  32  46 E8        30.09S
$$

AZZ027-028-131100-
SOUTHWEST MARICOPA COUNTY AND PINAL COUNTY

CITY           SKY/WX    TMP DP  RH WIND       PRES   REMARKS
CASA GRANDE    CLEAR     48  27  43 NE5       30.08F
GILA BEND      FAIR      54  25  32 SE8       30.05S
$$

AZZ503-504-507>509-131100-
SOUTHEAST ARIZONA

CITY           SKY/WX    TMP DP  RH WIND       PRES   REMARKS
TUCSON         CLEAR     51  22  31 SE9       30.14F
DAVIS-MONTHAN  CLEAR     55  19  23 CALM      30.12F
NOGALES        PTCLDY    45  19  35 E7        30.18F
SIERRA VISTA   MOCLDY    52  14  22 CALM      30.23F
DOUGLAS        PTCLDY    36  10  34 E3        30.21F
SAFFORD        PTCLDY    45  20  36 CALM      30.18S
$$

AZZ020-021-025-026-031-131100-
SOUTHWEST ARIZONA

CITY           SKY/WX    TMP DP  RH WIND       PRES   REMARKS
YUMA           CLEAR     56  30  37 CALM      30.03F
$$

CAZ031-033-041-043-047-048-061-131100-
SOUTHERN CALIFORNIA

CITY           SKY/WX    TMP DP  RH WIND       PRES   REMARKS
DOWNTOWN L.A.  CLEAR     57  53  86 CALM      30.08S
L.A. AIRPORT   PTCLDY    54  51  90 W3        30.08S
SAN DIEGO      FOG       57  51  81 CALM      30.09F VSB 1/4
BURBANK        CLEAR     57  36  45 CALM      30.08S
ONTARIO        CLEAR     56  37  49 CALM      30.09F
RIVERSIDE      CLEAR     56  37  49 NE5       30.10S
PALM SPRINGS   CLEAR     62  24  23 N8        30.07F
EL CENTRO NAS  CLEAR     54  22  28 W8        30.05S
IMPERIAL       CLEAR     52  28  39 W8        30.03S
BLYTHE         CLEAR     52  23  32 CALM      30.06S
NEEDLES        CLEAR     53  25  33 W5        30.09S
$$

NVZ020-UTZ003-131100-
SOUTHERN NEVADA-UTAH

CITY           SKY/WX    TMP DP  RH WIND       PRES   REMARKS
LAS VEGAS      PTCLDY    51  22  31 SW3       30.11F
SALT LAKE CITY CLOUDY    29  28  96 SW3       30.29F FOG
$$

NMZ009-TXZ055-131100-
NEW MEXICO-WEST TEXAS

CITY           SKY/WX    TMP DP  RH WIND       PRES   REMARKS
ALBUQUERQUE    CLOUDY    42  21  43 N10       30.29F
EL PASO        PTCLDY    42  17  36 N5        30.24S
$$


........................KEY........................
SKY/WX - SKY CONDITION/WEATHER
TMP    - TEMPERATURE IN FAHRENHEIT
DP     - DEW POINT IN FAHRENHEIT
RH     - RELATIVE HUMIDITY IN PERCENT
WIND   - DIRECTION AND SPEED IN MILES PER HOUR (MPH)
VRB    - VARIABLE WIND DIRECTION
PRES   - MEAN SEA LEVEL PRESSURE IN INCHES OF MERCURY
         F - FALLING PRESSURE   R - RISING PRESSURE
         S - STEADY PRESSURE
VSB    - VISIBILITY IN MILES
HX     - HEAT INDEX IN FAHRENHEIT
WCI    - WIND CHILL INDEX IN FAHRENHEIT
TC     - TEMPERATURE IN CELSIUS WHICH IS ALSO KNOWN AS
         TEMPERATURE IN CENTIGRADE
AFB    - AIR FORCE BASE
         LUKE AFB IS LUKE AIR FORCE BASE
         DAVIS-MONTHAN IS DAVIS-MONTHAN AIR FORCE BASE
NAS    - NAVAL AIR STATION
         EL CENTRO NAS IS EL CENTRO NAVAL AIR STATION
N/A    - NOT AVAILABLE





USA.gov is the U.S. government's official web portal to all federal, state and local government web resources and services.